Flag for Canada Weather past 2 weeks in Fort Smith, Northwest Territories, Canada

Now
46 °F

Sunny.


Feels Like: 44 °F
Forecast: 32 / 51 °F
Wind: 6 mph from Southeast

Location: Fort Smith

Current Time: Apr 21, 2015 at 8:30:57 PM

Latest Report: Apr 21, 2015 at 7:00 PM


Visibility: 15 mi

Pressure: 30.04 "Hg

Humidity: 27%

Dew point: 14 °F

Location of Fort SmithLocation

Historic Weather in Fort Smith — Graph

°F

Fort Smith temperature yesterday

Maximum temperature yesterday: 52 °F (at 1:00 PM)
Minimum temperature yesterday: 30 °F (at 2:00 AM)
Average temperature yesterday: 42 °F

Past Weeks' High & Low Weather Summary

 TemperatureHumidityPressure
High64 °F (Apr 9, 4:00 PM)100% (Apr 13, 12:00 AM)30.27 "Hg (Apr 13, 12:00 AM)
Low9 °F (Apr 14, 3:00 AM)16% (Apr 10, 5:00 PM)29.07 "Hg (Apr 11, 2:00 PM)
Average40 °F54%29.77 "Hg
* Reported Apr 6 7:00 PM — Apr 21 7:00 PM, Fort Smith, Weather by CustomWeather, © 2015

Note: Actual official high and low records may vary slightly from our data, if they occured in-between our weather recording intervals... More about our weather records

Advertising

Fort Smith weather history for previous 24 hours

 ConditionsComfort  
Time TempWeatherWind HumidityBarometerVisibility
7:00 PM
Tue, Apr 21
46 °FSunny.6 mph27%30.04 "Hg15 mi
6:00 PM48 °FPassing clouds.8 mph27%30.03 "Hg15 mi
5:00 PM48 °FPassing clouds.7 mph25%30.03 "Hg15 mi
4:00 PM46 °FPassing clouds.9 mph32%30.04 "Hg15 mi
3:00 PM46 °FScattered clouds.8 mph34%30.05 "Hg15 mi
2:00 PM46 °FScattered clouds.6 mph34%30.06 "Hg15 mi
1:00 PM43 °FScattered clouds.7 mph42%30.06 "Hg15 mi
12:00 PM41 °FPartly sunny.3 mph49%30.06 "Hg15 mi
11:00 AM37 °FPartly sunny.6 mph52%30.06 "Hg15 mi
10:00 AM34 °FPartly sunny.7 mph60%30.07 "Hg15 mi
9:00 AM32 °FPartly sunny.6 mph64%30.07 "Hg15 mi
8:00 AM28 °FPartly sunny.7 mph74%30.06 "Hg15 mi
7:00 AM27 °FPassing clouds.5 mph86%30.06 "Hg15 mi
6:00 AM27 °FClear.3 mph86%30.05 "Hg15 mi
5:00 AM28 °FClear.6 mph80%30.04 "Hg15 mi
4:00 AM30 °FClear.5 mph80%30.03 "Hg15 mi
3:00 AM32 °FClear.5 mph75%30.03 "Hg15 mi
2:00 AM34 °FClear.5 mph70%30.03 "Hg15 mi
1:00 AM36 °FClear.6 mph65%30.02 "Hg15 mi
12:00 AM37 °FClear.5 mph60%30.01 "Hg15 mi
11:00 PM
Mon, Apr 20
39 °FClear.6 mph52%30.01 "Hg15 mi
10:00 PM41 °FPassing clouds.6 mph49%30.00 "Hg15 mi
9:00 PM45 °FPassing clouds.6 mph42%29.99 "Hg15 mi
8:00 PM48 °FPassing clouds.5 mph34%29.99 "Hg15 mi
Weather by CustomWeather, © 2015

See weather overviewHow to use our weather pages